Location: Unspecified
(49.2170°N, 0.0000°E)
Time: 00:53:07
(UTC+00:00)

Transit 4A - Pass Details

Date: 24 June 2019
Orbit: 862 x 982 km, 66.8° (Epoch: 21 July)

Event Time Altitude Azimuth Distance (km) Brightness Sun altitude
Rises 07:32:23 0° 199° (SSW) 3,612 10.8 32.0°
Reaches altitude 10° 07:34:56 10° 196° (SSW) 2,685 10.3 32.4°
Maximum altitude 07:41:05 59° 118° (ESE) 1,118 9.6 33.4°
Drops below altitude 10° 07:47:23 10° 41° (NE) 2,744 11.0 34.5°
Sets 07:50:00 0° 38° (NE) 3,697 11.4 34.9°
